ARIANE 5 DEB (SYLDA)

基本信息
目录编号:
27833
目录名称:
ARIANE 5 DEB (SYLDA)
国际标识:
2003-028D
轨道中心:
EARTH
物体状态:
在轨
发射日期:
2003-06-11 UTC
轨道信息
数据来源: 国际轨道数据
星历时间: 2026-07-13T16:28:39+0800
半长轴: 24479.152km
偏心率: 0.7165081
轨道倾角: 6.614°
近地点辐角: 340.013°
升交点赤经: 100.314°
平近点角: 2.453°
近地点: 561.504km
远地点: 35640.526km
周期: 635.264分钟
每日圈数: 2.266774
详细信息
发射场:
FRGUI
轨道高度:
LEO
数据来源:
AOE Integration Group
参考系:
TEME
时间系统:
UTC
历元类型:
SGP4
2D轨道图
3D轨道图
轨道高度分析图
轨道倾角分析图
轨道综合分析图
查看轨道综合分析图